Regional Weather Roundup
Issued by NWS Upton, NY

Current Version | Previous Version | Graphics & Text | Print | Product List | Glossary Off
Versions: 1 2 3 4 5 6 7 8 9 10 11 12 13 14 15 16 17 18 19 20 21 22 23 24 25 26 27 28 29 30 31 32 33 34 35 36 37 38 39 40 41 42 43 44 45 46 47 48 49 50
000 ASUS41 KOKX 301008 RWROKX REGIONAL WEATHER ROUNDUP NATIONAL WEATHER SERVICE NEW YORK NY 600 AM EDT TUE JUN 30 2015 NOTE: "FAIR" INDICATES FEW OR NO CLOUDS BELOW 12,000 FEET WITH NO SIGNIFICANT WEATHER AND/OR OBSTRUCTIONS TO VISIBILITY. NYZ071-072-176-178-NJZ106-104-301100- NEW YORK CITY METRO AREA CITY SKY/WX TMP DP RH WIND PRES REMARKS CENTRAL PARK MOCLDY 68 58 70 CALM 29.99R LAGUARDIA APRT PTCLDY 68 59 73 CALM 29.96R KENNEDY INTL PTCLDY 66 61 84 SE5 29.97R NEWARK/LIBERTY PTCLDY 68 59 73 CALM 29.96R BRNX BOT. GARD N/A 63 59 88 CALM 29.96R TETERBORO PTCLDY 64 58 80 CALM 29.95R $$ NYZ177-179-078>081-301100- LONG ISLAND NEW YORK CITY SKY/WX TMP DP RH WIND PRES REMARKS FARMINGDALE CLEAR 64 62 93 CALM 29.97R ISLIP PTCLDY 66 64 93 S5 29.96R SHIRLEY CLEAR 66 63 90 S3 29.98R WESTHAMPTON FOG 58 58 100 CALM 30.00R VSB 1 MONTAUK POINT N/A 66 63 90 VRB3 29.99R $$ NYZ052-065-067-301100- HUDSON VALLEY CITY SKY/WX TMP DP RH WIND PRES REMARKS WHITE PLAINS PTCLDY 62 58 86 CALM 29.96R NEWBURGH MOCLDY 63 61 94 CALM 29.97R MONTGOMERY CLOUDY 62 60 93 CALM 29.96R POUGHKEEPSIE MOCLDY 62 59 90 N3 29.96R ALBANY PTCLDY 58 56 93 CALM 29.98R $$ NJZ001-105-106-008-010-013-015-019>022-104-301100- NEW JERSEY CITY SKY/WX TMP DP RH WIND PRES REMARKS NEWARK/LIBERTY PTCLDY 68 59 73 CALM 29.96R TETERBORO PTCLDY 64 58 80 CALM 29.95R CALDWELL PTCLDY 60 57 89 CALM 29.97R MORRISTOWN CLOUDY 61 59 94 CALM 29.97R SOMERVILLE CLOUDY 60 57 89 CALM 29.94S SUSSEX CLOUDY 61 59 93 CALM 29.96R ANDOVER N/A 58 57 97 CALM 29.96S TRENTON MOCLDY 62 59 90 CALM 29.95R MILLVILLE LGT RAIN 65 63 93 SE6 29.96R ATLANTIC CITY PTCLDY 64 61 90 CALM 29.97R WRIGHTSTOWN CLEAR 59 59 99 CALM 29.94R TOMS RIVER CLEAR 55 55 100 CALM 29.97R BELMAR CLEAR 64 57 77 S5 29.97R $$ PAZ047>061-062-071-301100- EASTERN PENNSYLVANIA CITY SKY/WX TMP DP RH WIND PRES REMARKS PHILADELPHIA MOCLDY 69 63 81 SE3 29.95R ALLENTOWN CLOUDY 64 59 83 E5 29.94S SCRANTON CLOUDY 67 58 72 NE6 29.93S $$ CTZ002-004>006-009-010-012-RIZ004-006-007-MAZ004-011-015-301100- SOUTHERN NEW ENGLAND IN CT CITY SKY/WX TMP DP RH WIND PRES REMARKS BRADLEY INTL MOCLDY 60 57 89 N3 29.96S HARTFORD CLOUDY 62 59 90 VRB5 29.97R DANBURY CLEAR 60 56 86 CALM 29.98R WTRBRY/OXFORD MOCLDY 63 55 77 CALM 29.98S BRIDGEPORT CLEAR 64 61 90 CALM 29.96R MERIDEN PTCLDY 62 59 90 CALM 29.97R NEW HAVEN PTCLDY 60 59 96 N5 29.97R CHESTER FAIR 59 57 94 CALM 29.98S GROTON MOCLDY 62 59 90 CALM 29.97R WILLIMANTIC CLOUDY 56 54 93 MISG 29.99R IN RI CITY SKY/WX TMP DP RH WIND PRES REMARKS PROVIDENCE MOCLDY 62 59 90 CALM 29.98S BLOCK ISLAND CLEAR 64 61 88 SW9 29.98S WESTERLY MOCLDY 60 58 92 CALM 29.98S IN MA CITY SKY/WX TMP DP RH WIND PRES REMARKS BOSTON MOCLDY 62 59 90 SW6 29.98R WORCESTER CLEAR 59 54 83 CALM 29.99R WESTFIELD CLOUDY 58 55 90 N3 29.98R PROVINCETOWN CLEAR 59 3 10 SW5 29.98S NANTUCKET CLEAR 63 61 93 SW6 30.00R $$ ANZ330-335-338-340-345-350-353-355-301100- COASTAL MARINE OBSERVATIONS STATION/POSITION TIME SKY/WX TEMP WIND PRES VSBY WAVE AIR SEA DIR/SP/G HT/PER (UTC) (F) (DEG/KT/KT) (MB) (MI) (FT/S) NY HARB ENTRANCE 0950 68 68 180/ 8/ 8 1014.3 3/ 8 4S FIRE IS 0903 65 N/A 3/ 8 20S FIRE ISLAND 0950 67 66 180/ 8/ 10 1014.6 3/ 8 GREAT SOUTH BAY 0900 69 71 240/ 8/ 10 N/A 23SW MTP 0950 66 65 190/ 6/ 8 1014.9 4/ 8 HUDSON CANYON NOT AVBL KINGS POINT 0900 68 65 160/ 2/ 3 1013.6 CENTRAL LI SOUND NOT AVBL EASTERN LI SOUND 0900 63 110/ 2/ 4 N/A ROBBINS REEF 0900 68 280/ 3/ 3 1013.1 $$ >>>>>>>>>>>>>>>>>>>>>>>>>>>> KEY <<<<<<<<<<<<<<<<<<<<<<<<<<< > < > SKY/WX - SKY CONDITION/PRESENT WEATHER < > TMP - TEMPERATURE IN FAHRENHEIT < > DP - DEWPOINT IN FAHRENHEIT < > RH - RELATIVE HUMIDITY IN PERCENT < > WIND - DIRECTION AND SPEED IN MPH < > PRES - MEAN SEA LEVEL PRESSURE IN INCHES OF HG < > WCI - WIND CHILL INDEX < > VSB - VISIBILITY IN MILES < > HX - HEAT INDEX < > TC - TEMPERATURE IN CELSIUS < > VRB - VARIABLE WIND DIRECTION < > < >>>>>>>>>>>>>>>>>>>>>>>>>>>> KEY <<<<<<<<<<<<<<<<<<<<<<<<<<<

USA.gov is the U.S. government's official web portal to all federal, state and local government web resources and services.